Radiation Dose at Monitoring Post of Fukushima Daini Nuclear Power Station
Date,Time,MP-1(microSv/h),MP-2(microSv/h),MP-3(microSv/h),MP-4(microSv/h),MP-5(microSv/h),MP-6(microSv/h),MP-7(microSv/h),Wind Direction,Wind Velocity(m/s),Rain
2016/12/16,00:00,0.383,0.232,0.397,0.367,0.341,0.190,0.162,north-northwest,5.5,No
2016/12/16,00:10,0.382,0.231,0.396,0.366,0.340,0.191,0.162,north-northwest,5.3,No
2016/12/16,00:20,0.384,0.233,0.398,0.366,0.341,0.190,0.162,north-northwest,5.3,No
2016/12/16,00:30,0.381,0.231,0.396,0.367,0.340,0.190,0.162,north-northwest,6.3,No
2016/12/16,00:40,0.381,0.232,0.398,0.367,0.339,0.190,0.162,north-northwest,5.9,No
2016/12/16,00:50,0.383,0.231,0.397,0.368,0.340,0.190,0.162,north,6.1,No
2016/12/16,01:00,0.382,0.230,0.397,0.367,0.341,0.190,0.162,north-northwest,6.9,No
2016/12/16,01:10,0.381,0.230,0.397,0.369,0.340,0.189,0.162,north-northwest,6.3,No
2016/12/16,01:20,0.381,0.230,0.397,0.366,0.340,0.189,0.162,north,6.4,No
2016/12/16,01:30,0.382,0.231,0.397,0.366,0.339,0.189,0.162,north-northwest,6.7,No
2016/12/16,01:40,0.382,0.232,0.398,0.367,0.341,0.189,0.162,north-northwest,7.0,No
2016/12/16,01:50,0.383,0.230,0.397,0.368,0.340,0.190,0.162,north-northwest,5.9,No
2016/12/16,02:00,0.383,0.232,0.395,0.367,0.340,0.189,0.162,north-northwest,6.2,No
2016/12/16,02:10,0.381,0.231,0.396,0.367,0.340,0.189,0.162,north,5.1,No
2016/12/16,02:20,0.382,0.232,0.398,0.366,0.340,0.189,0.162,north,4.2,No
2016/12/16,02:30,0.381,0.230,0.397,0.368,0.339,0.189,0.162,north,5.4,No
2016/12/16,02:40,0.382,0.230,0.397,0.368,0.339,0.189,0.162,north,6.1,No
2016/12/16,02:50,0.382,0.232,0.396,0.367,0.339,0.189,0.162,north,6.0,No
2016/12/16,03:00,0.380,0.232,0.397,0.366,0.341,0.191,0.163,north,6.2,No
2016/12/16,03:10,0.381,0.231,0.398,0.367,0.339,0.190,0.162,north,6.4,No
2016/12/16,03:20,0.382,0.231,0.397,0.369,0.340,0.189,0.162,north-northwest,5.8,No
2016/12/16,03:30,0.383,0.232,0.396,0.368,0.339,0.190,0.162,north-northwest,6.6,No
2016/12/16,03:40,0.383,0.232,0.397,0.368,0.339,0.189,0.163,north-northwest,6.8,No
2016/12/16,03:50,0.383,0.230,0.397,0.366,0.341,0.190,0.163,north-northwest,8.3,No
2016/12/16,04:00,0.381,0.231,0.398,0.366,0.340,0.190,0.162,north-northwest,6.7,No
2016/12/16,04:10,0.384,0.231,0.397,0.366,0.339,0.189,0.161,north-northwest,6.7,No
2016/12/16,04:20,0.381,0.231,0.396,0.367,0.338,0.190,0.162,north-northwest,7.1,No
2016/12/16,04:30,0.382,0.231,0.395,0.366,0.339,0.190,0.162,north-northwest,7.0,No
2016/12/16,04:40,0.380,0.230,0.396,0.367,0.340,0.190,0.162,north-northwest,7.1,No
2016/12/16,04:50,0.381,0.230,0.397,0.368,0.340,0.189,0.162,north,7.0,No
2016/12/16,05:00,0.383,0.230,0.399,0.368,0.340,0.190,0.162,north-northwest,7.5,No
2016/12/16,05:10,0.382,0.230,0.398,0.367,0.339,0.190,0.162,north,6.5,No
2016/12/16,05:20,0.382,0.230,0.398,0.367,0.340,0.190,0.162,north,6.9,No
2016/12/16,05:30,0.381,0.231,0.397,0.366,0.341,0.190,0.163,north,6.4,No
2016/12/16,05:40,0.384,0.231,0.396,0.367,0.340,0.190,0.163,north,6.1,No
2016/12/16,05:50,0.383,0.231,0.396,0.368,0.340,0.190,0.163,north,5.8,No
2016/12/16,06:00,0.381,0.231,0.395,0.367,0.339,0.188,0.162,north,7.0,No
2016/12/16,06:10,0.381,0.232,0.397,0.366,0.339,0.190,0.162,north,7.3,No
2016/12/16,06:20,0.383,0.231,0.399,0.367,0.341,0.191,0.162,north,7.0,No
2016/12/16,06:30,0.382,0.233,0.397,0.367,0.341,0.191,0.161,north,6.4,No
2016/12/16,06:40,0.383,0.232,0.398,0.366,0.342,0.190,0.162,north,7.0,No
2016/12/16,06:50,0.380,0.232,0.396,0.367,0.339,0.191,0.162,north,7.3,No
2016/12/16,07:00,0.381,0.231,0.398,0.366,0.340,0.191,0.163,north,7.0,No
2016/12/16,07:10,0.383,0.232,0.397,0.368,0.340,0.190,0.162,north,7.2,No
2016/12/16,07:20,0.382,0.231,0.396,0.367,0.339,0.189,0.163,north,7.2,No
2016/12/16,07:30,0.383,0.232,0.396,0.367,0.340,0.190,0.162,north,6.5,No
2016/12/16,07:40,0.382,0.232,0.396,0.366,0.339,0.190,0.162,north,5.7,No
2016/12/16,07:50,0.383,0.232,0.396,0.367,0.340,0.190,0.163,north,5.6,No
2016/12/16,08:00,0.382,0.231,0.395,0.366,0.339,0.190,0.162,north,6.3,No
2016/12/16,08:10,0.380,0.231,0.395,0.366,0.338,0.189,0.162,north-northwest,5.0,No
2016/12/16,08:20,0.382,0.231,0.396,0.367,0.340,0.189,0.163,north-northwest,5.0,No
2016/12/16,08:30,0.382,0.231,0.397,0.367,0.340,0.190,0.162,north-northwest,4.2,No
2016/12/16,08:40,0.383,0.230,0.398,0.368,0.339,0.191,0.163,north-northwest,4.8,No
2016/12/16,08:50,0.382,0.232,0.397,0.367,0.340,0.190,0.162,north-northwest,4.7,No
2016/12/16,09:00,0.381,0.231,0.398,0.366,0.340,0.191,0.162,north-northwest,3.5,No
2016/12/16,09:10,0.383,0.230,0.395,0.367,0.341,0.190,0.162,north-northwest,2.2,No
2016/12/16,09:20,0.382,0.232,0.395,0.367,0.340,0.190,0.162,northwest,1.0,No
2016/12/16,09:30,0.381,0.232,0.396,0.368,0.341,0.190,0.162,southwest,0.8,No
2016/12/16,09:40,0.382,0.232,0.398,0.368,0.341,0.189,0.163,-,CALM,No
2016/12/16,09:50,0.382,0.232,0.395,0.366,0.341,0.190,0.163,south-southwest,0.7,No
2016/12/16,10:00,0.381,0.232,0.394,0.367,0.340,0.190,0.162,west-southwest,1.1,No
2016/12/16,10:10,0.382,0.231,0.397,0.368,0.339,0.190,0.163,west-northwest,2.8,No
2016/12/16,10:20,0.381,0.231,0.396,0.367,0.340,0.190,0.162,west-northwest,4.4,No
2016/12/16,10:30,0.380,0.229,0.396,0.365,0.339,0.190,0.162,northwest,4.6,No
2016/12/16,10:40,0.382,0.230,0.397,0.366,0.339,0.189,0.160,west-northwest,6.9,No
2016/12/16,10:50,0.379,0.230,0.396,0.365,0.339,0.191,0.162,northwest,7.0,No
2016/12/16,11:00,0.380,0.232,0.396,0.367,0.338,0.190,0.161,northwest,6.2,No
2016/12/16,11:10,0.382,0.231,0.395,0.367,0.341,0.190,0.162,northwest,5.0,No
2016/12/16,11:20,0.382,0.230,0.396,0.366,0.338,0.191,0.163,northwest,3.0,No
2016/12/16,11:30,0.381,0.230,0.397,0.368,0.340,0.190,0.162,northwest,6.2,No
2016/12/16,11:40,0.381,0.230,0.396,0.366,0.340,0.189,0.161,west-northwest,6.2,No
2016/12/16,11:50,0.381,0.231,0.397,0.368,0.340,0.191,0.162,west-northwest,5.9,No
2016/12/16,12:00,0.381,0.232,0.394,0.367,0.340,0.191,0.162,west-northwest,5.8,No
2016/12/16,12:10,0.382,0.231,0.396,0.366,0.338,0.191,0.162,west-northwest,6.4,No
2016/12/16,12:20,0.381,0.230,0.397,0.368,0.341,0.191,0.162,west-northwest,8.1,No
2016/12/16,12:30,0.383,0.231,0.396,0.365,0.343,0.191,0.162,northwest,5.4,No
2016/12/16,12:40,0.382,0.232,0.396,0.369,0.341,0.191,0.162,northwest,5.0,No
2016/12/16,12:50,0.380,0.232,0.395,0.366,0.341,0.190,0.163,west-northwest,6.3,No
2016/12/16,13:00,0.383,0.231,0.395,0.367,0.341,0.190,0.162,west-northwest,9.1,No
2016/12/16,13:10,0.381,0.232,0.397,0.367,0.341,0.191,0.163,northwest,7.1,No
2016/12/16,13:20,0.382,0.231,0.396,0.368,0.344,0.191,0.162,west-northwest,5.2,No
2016/12/16,13:30,0.383,0.231,0.399,0.370,0.342,0.191,0.163,west-northwest,5.5,No
2016/12/16,13:40,0.382,0.231,0.398,0.367,0.341,0.191,0.162,west,7.1,No
2016/12/16,13:50,0.383,0.231,0.396,0.369,0.341,0.190,0.163,northwest,4.4,No
2016/12/16,14:00,0.382,0.232,0.399,0.366,0.341,0.191,0.163,west-northwest,6.4,No
2016/12/16,14:10,0.383,0.231,0.399,0.368,0.339,0.190,0.163,west-northwest,2.8,No
2016/12/16,14:20,0.382,0.232,0.396,0.368,0.341,0.189,0.163,west-northwest,2.8,No
2016/12/16,14:30,0.383,0.231,0.399,0.367,0.341,0.191,0.163,northwest,4.6,No
2016/12/16,14:40,0.384,0.231,0.398,0.368,0.342,0.189,0.163,northwest,5.0,No
2016/12/16,14:50,0.385,0.231,0.398,0.369,0.341,0.191,0.163,west-northwest,3.4,No
2016/12/16,15:00,0.382,0.231,0.397,0.367,0.343,0.190,0.162,west-northwest,5.8,No
2016/12/16,15:10,0.381,0.232,0.398,0.368,0.341,0.190,0.163,west-northwest,3.3,No
2016/12/16,15:20,0.385,0.232,0.397,0.368,0.339,0.189,0.163,west,4.8,No
2016/12/16,15:30,0.385,0.232,0.397,0.368,0.342,0.191,0.163,west-northwest,3.6,No
2016/12/16,15:40,0.382,0.231,0.396,0.369,0.340,0.189,0.163,north,2.3,No
2016/12/16,15:50,0.382,0.232,0.396,0.369,0.339,0.191,0.163,northwest,1.9,No
2016/12/16,16:00,0.383,0.231,0.397,0.367,0.341,0.190,0.163,west,2.0,No
2016/12/16,16:10,0.383,0.232,0.398,0.368,0.340,0.191,0.163,west,2.7,No
2016/12/16,16:20,0.383,0.231,0.398,0.368,0.340,0.189,0.164,west,4.2,No
2016/12/16,16:30,0.382,0.231,0.397,0.369,0.340,0.190,0.162,west,5.0,No
2016/12/16,16:40,0.383,0.231,0.396,0.367,0.340,0.190,0.163,west-northwest,5.0,No
2016/12/16,16:50,0.383,0.230,0.398,0.369,0.340,0.190,0.163,west-northwest,3.9,No
2016/12/16,17:00,0.382,0.231,0.397,0.369,0.340,0.191,0.162,northwest,3.9,No
2016/12/16,17:10,0.382,0.232,0.397,0.368,0.341,0.190,0.163,northwest,4.5,No
2016/12/16,17:20,0.383,0.232,0.397,0.368,0.340,0.190,0.163,west-northwest,4.7,No
2016/12/16,17:30,0.382,0.231,0.397,0.368,0.340,0.190,0.162,west-northwest,3.2,No
2016/12/16,17:40,0.382,0.231,0.397,0.369,0.340,0.192,0.163,west,3.6,No
2016/12/16,17:50,0.382,0.232,0.396,0.369,0.341,0.190,0.163,west-northwest,2.3,No
2016/12/16,18:00,0.383,0.232,0.396,0.369,0.340,0.190,0.164,northwest,3.7,No
2016/12/16,18:10,0.383,0.231,0.396,0.369,0.341,0.189,0.163,north-northwest,2.5,No
2016/12/16,18:20,0.381,0.231,0.398,0.369,0.341,0.191,0.164,northwest,1.5,No
2016/12/16,18:30,0.382,0.232,0.396,0.367,0.341,0.190,0.163,west-northwest,0.8,No
2016/12/16,18:40,0.383,0.231,0.397,0.368,0.340,0.190,0.162,northwest,1.1,No
2016/12/16,18:50,0.383,0.233,0.396,0.369,0.341,0.191,0.163,north-northwest,1.1,No
2016/12/16,19:00,0.382,0.231,0.397,0.369,0.338,0.191,0.162,north-northwest,1.0,No
2016/12/16,19:10,0.382,0.230,0.397,0.368,0.341,0.191,0.162,north,0.6,No
2016/12/16,19:20,0.382,0.232,0.398,0.368,0.341,0.190,0.163,north,0.8,No
2016/12/16,19:30,0.383,0.233,0.398,0.368,0.339,0.190,0.163,north-northwest,0.7,No
2016/12/16,19:40,0.382,0.230,0.399,0.369,0.338,0.190,0.162,-,CALM,No
2016/12/16,19:50,0.383,0.232,0.397,0.368,0.340,0.192,0.163,-,CALM,No
2016/12/16,20:00,0.382,0.231,0.399,0.369,0.341,0.191,0.162,-,CALM,No
2016/12/16,20:10,0.382,0.230,0.396,0.369,0.341,0.190,0.162,-,CALM,No
2016/12/16,20:20,0.382,0.231,0.398,0.367,0.340,0.190,0.162,-,CALM,No
2016/12/16,20:30,0.383,0.232,0.397,0.370,0.340,0.190,0.163,south-southwest,0.6,No
2016/12/16,20:40,0.382,0.232,0.399,0.369,0.340,0.191,0.163,-,CALM,No
2016/12/16,20:50,0.382,0.233,0.398,0.368,0.340,0.190,0.163,south-southwest,0.6,No
2016/12/16,21:00,0.383,0.232,0.397,0.367,0.341,0.191,0.162,south,2.2,No
2016/12/16,21:10,0.382,0.231,0.397,0.369,0.340,0.191,0.163,-,CALM,No
2016/12/16,21:20,0.383,0.231,0.397,0.369,0.339,0.191,0.163,west-northwest,1.0,No
2016/12/16,21:30,0.383,0.231,0.398,0.369,0.338,0.190,0.163,northwest,2.6,No
2016/12/16,21:40,0.382,0.231,0.399,0.368,0.340,0.192,0.162,northwest,2.5,No
2016/12/16,21:50,0.383,0.232,0.399,0.368,0.341,0.190,0.162,northwest,2.0,No
2016/12/16,22:00,0.383,0.232,0.397,0.368,0.340,0.191,0.163,west-northwest,1.5,No
2016/12/16,22:10,0.382,0.233,0.398,0.369,0.339,0.191,0.164,west,1.5,No
2016/12/16,22:20,0.383,0.233,0.398,0.369,0.340,0.190,0.164,west-southwest,3.2,No
2016/12/16,22:30,0.382,0.232,0.398,0.368,0.340,0.191,0.163,west-northwest,4.7,No
2016/12/16,22:40,0.382,0.232,0.400,0.368,0.339,0.191,0.164,west,6.4,No
2016/12/16,22:50,0.382,0.232,0.398,0.368,0.341,0.191,0.163,west,7.9,No
2016/12/16,23:00,0.383,0.232,0.398,0.368,0.339,0.191,0.162,west,8.6,No
2016/12/16,23:10,0.384,0.230,0.397,0.368,0.339,0.191,0.162,west,7.3,No
2016/12/16,23:20,0.383,0.230,0.398,0.369,0.338,0.190,0.163,west,7.0,No
2016/12/16,23:30,0.382,0.230,0.397,0.369,0.340,0.190,0.163,west,3.9,No
2016/12/16,23:40,0.381,0.232,0.397,0.368,0.340,0.191,0.163,west,4.8,No
2016/12/16,23:50,0.383,0.231,0.396,0.369,0.339,0.191,0.162,west-southwest,3.4,No
